EZS27NE LSGG-LICC

Flight info

Callsign EZS27NE
Flight time N/A
Altitude 37000
Route MEDAM DCT NITAM DCT MOGBO DCT UNITA DCT VELAD DCT TINTO DCT POKAV DCT BETOT DCT RUVIP DCT RONAB DCT GIANO DCT BEKIV DCT ENEPA M871 LIBRO
Aircraft A320/M-SDE3FGHIRWY/LB1

Departure

Time N/A
Airport Geneva International Airport (LSGG)

Arrival

Time 2026-04-29 05:56
Airport Catania-Fontanarossa Airport (LICC)
Time Latitude Longitude Altitude Speed Heading
2026-04-29 04:35 43.86382 9.10139 37004 ft 454 kts 146°
2026-04-29 04:36 43.81166 9.15099 37004 ft 454 kts 146°
2026-04-29 04:36 43.75953 9.20060 37004 ft 454 kts 146°
2026-04-29 04:37 43.70729 9.25005 37005 ft 454 kts 146°
2026-04-29 04:37 43.65504 9.29929 37005 ft 454 kts 146°
2026-04-29 04:38 43.60286 9.34844 37006 ft 454 kts 146°
2026-04-29 04:38 43.55052 9.39766 37006 ft 454 kts 146°
2026-04-29 04:39 43.49821 9.44666 37006 ft 454 kts 146°
2026-04-29 04:39 43.44587 9.49560 37007 ft 454 kts 146°
2026-04-29 04:40 43.39354 9.54451 37007 ft 454 kts 146°
2026-04-29 04:40 43.34120 9.59320 37007 ft 454 kts 146°
2026-04-29 04:41 43.28901 9.64160 37007 ft 454 kts 146°
2026-04-29 04:41 43.23637 9.69062 37007 ft 455 kts 146°
2026-04-29 04:42 43.18396 9.73933 37007 ft 454 kts 146°
2026-04-29 04:42 43.13186 9.78740 37007 ft 454 kts 146°
2026-04-29 04:43 43.07941 9.83564 37007 ft 454 kts 146°
2026-04-29 04:43 43.02687 9.88398 37007 ft 454 kts 146°
2026-04-29 04:44 42.97433 9.93222 37007 ft 454 kts 146°
2026-04-29 04:44 42.92183 9.98037 37007 ft 454 kts 146°
2026-04-29 04:45 42.86929 10.02845 37007 ft 454 kts 146°
2026-04-29 04:45 42.82561 10.06831 37007 ft 454 kts 146°
2026-04-29 04:46 42.77229 10.11694 37007 ft 454 kts 146°
2026-04-29 04:46 42.71976 10.16464 37007 ft 455 kts 147°
2026-04-29 04:47 42.66735 10.21212 37007 ft 454 kts 147°
2026-04-29 04:47 42.61472 10.25971 37007 ft 454 kts 147°
2026-04-29 04:48 42.56202 10.30734 37007 ft 454 kts 147°
2026-04-29 04:48 42.50935 10.35476 37007 ft 454 kts 147°
2026-04-29 04:49 42.45669 10.40214 37007 ft 454 kts 147°
2026-04-29 04:49 42.40398 10.44958 37007 ft 454 kts 147°
2026-04-29 04:50 42.35132 10.49681 37007 ft 454 kts 147°
2026-04-29 04:50 42.29865 10.54388 37007 ft 454 kts 147°
2026-04-29 04:51 42.24548 10.59136 37007 ft 454 kts 147°
2026-04-29 04:51 42.19269 10.63845 37007 ft 454 kts 147°
2026-04-29 04:52 42.13985 10.68537 37007 ft 454 kts 147°
2026-04-29 04:52 42.08704 10.73215 37008 ft 454 kts 147°
2026-04-29 04:53 42.03211 10.77394 37005 ft 453 kts 159°
2026-04-29 04:53 41.97338 10.80531 37005 ft 454 kts 159°
2026-04-29 04:54 41.91506 10.83636 37004 ft 454 kts 159°
2026-04-29 04:54 41.85637 10.86769 37005 ft 454 kts 159°
2026-04-29 04:55 41.79769 10.89890 37005 ft 454 kts 159°
2026-04-29 04:55 41.73900 10.92996 37006 ft 454 kts 159°
2026-04-29 04:56 41.68012 10.96114 37006 ft 454 kts 159°
2026-04-29 04:56 41.62137 10.99217 37007 ft 454 kts 159°
2026-04-29 04:57 41.56258 11.02310 37007 ft 454 kts 159°
2026-04-29 04:57 41.50413 11.05381 37007 ft 454 kts 159°
2026-04-29 04:58 41.44532 11.08468 37007 ft 454 kts 159°
2026-04-29 04:58 41.38656 11.11551 37007 ft 454 kts 159°
2026-04-29 04:59 41.32775 11.14637 37007 ft 454 kts 159°
2026-04-29 04:59 41.26894 11.17709 37008 ft 454 kts 159°
2026-04-29 05:00 41.21011 11.20770 37008 ft 454 kts 159°
2026-04-29 05:00 41.15129 11.23825 37008 ft 454 kts 159°
2026-04-29 05:01 41.09247 11.26888 37008 ft 454 kts 159°
2026-04-29 05:01 41.03395 11.29933 37008 ft 454 kts 159°
2026-04-29 05:02 40.97471 11.32998 37008 ft 454 kts 159°
2026-04-29 05:02 40.91582 11.36024 37008 ft 454 kts 159°
2026-04-29 05:03 40.85738 11.39034 37008 ft 454 kts 159°
2026-04-29 05:03 40.79815 11.42085 37008 ft 454 kts 159°
2026-04-29 05:04 40.73963 11.45088 37008 ft 454 kts 159°
2026-04-29 05:04 40.68074 11.48113 37008 ft 454 kts 159°
2026-04-29 05:05 40.62191 11.51132 37008 ft 454 kts 159°
2026-04-29 05:05 40.56301 11.54135 37008 ft 454 kts 159°
2026-04-29 05:06 40.50407 11.57135 37008 ft 454 kts 159°
2026-04-29 05:06 40.44500 11.60135 37008 ft 454 kts 159°
2026-04-29 05:07 40.38610 11.63118 37008 ft 454 kts 159°
2026-04-29 05:07 40.32716 11.66105 37008 ft 454 kts 159°
2026-04-29 05:08 40.26819 11.69091 37008 ft 454 kts 159°
2026-04-29 05:08 40.20934 11.72065 37008 ft 454 kts 159°
2026-04-29 05:09 40.15072 11.75019 37008 ft 454 kts 159°
2026-04-29 05:09 40.11055 11.77032 37008 ft 454 kts 159°
2026-04-29 05:10 40.05195 11.79964 37008 ft 454 kts 159°
2026-04-29 05:10 39.99303 11.82916 37008 ft 454 kts 159°
2026-04-29 05:11 39.93399 11.85870 37008 ft 454 kts 159°
2026-04-29 05:11 39.87499 11.88821 37008 ft 454 kts 159°
2026-04-29 05:12 39.81619 11.91974 37008 ft 454 kts 156°
2026-04-29 05:12 39.75851 11.95331 37008 ft 454 kts 156°
2026-04-29 05:13 39.70081 11.98676 37008 ft 454 kts 156°
2026-04-29 05:13 39.64280 12.01943 37008 ft 454 kts 157°
2026-04-29 05:14 39.58472 12.05175 37008 ft 454 kts 157°
2026-04-29 05:14 39.52704 12.08388 37008 ft 454 kts 157°
2026-04-29 05:15 39.46895 12.11629 37008 ft 454 kts 157°
2026-04-29 05:15 39.41092 12.14867 37008 ft 454 kts 157°
2026-04-29 05:16 39.35284 12.18108 37008 ft 454 kts 157°
2026-04-29 05:16 39.29474 12.21318 37008 ft 454 kts 157°
2026-04-29 05:17 39.23669 12.24529 37008 ft 454 kts 157°
2026-04-29 05:17 39.17863 12.27744 37008 ft 454 kts 157°
2026-04-29 05:18 39.12060 12.30943 37008 ft 454 kts 157°
2026-04-29 05:18 39.06243 12.34151 37008 ft 454 kts 157°
2026-04-29 05:19 39.00471 12.37335 37008 ft 454 kts 157°
2026-04-29 05:19 38.94629 12.40553 37008 ft 454 kts 157°
2026-04-29 05:20 38.88845 12.43813 37007 ft 454 kts 152°
2026-04-29 05:20 38.83817 12.48668 37006 ft 454 kts 135°
2026-04-29 05:21 38.79306 12.54335 37003 ft 454 kts 136°
2026-04-29 05:21 38.74767 12.59986 37003 ft 455 kts 136°
2026-04-29 05:22 38.70268 12.65604 37003 ft 455 kts 136°
2026-04-29 05:22 38.65738 12.71253 37004 ft 455 kts 136°
2026-04-29 05:23 38.61202 12.76895 37005 ft 455 kts 136°
2026-04-29 05:23 38.56650 12.82523 37006 ft 455 kts 136°
2026-04-29 05:24 38.52863 12.87191 37006 ft 455 kts 136°
2026-04-29 05:24 38.48311 12.92808 37007 ft 455 kts 136°
2026-04-29 05:25 38.43762 12.98418 37007 ft 455 kts 136°
2026-04-29 05:25 38.39212 13.04034 37008 ft 455 kts 136°
2026-04-29 05:26 38.34663 13.09648 37008 ft 455 kts 136°
2026-04-29 05:26 38.30113 13.15255 37008 ft 455 kts 136°
2026-04-29 05:27 38.25551 13.20850 37008 ft 455 kts 136°
2026-04-29 05:27 38.18705 13.29206 37008 ft 455 kts 136°
2026-04-29 05:28 38.14133 13.34787 37008 ft 455 kts 136°
2026-04-29 05:28 38.09567 13.40359 37008 ft 455 kts 136°
2026-04-29 05:29 38.04997 13.45919 37008 ft 455 kts 136°
2026-04-29 05:29 38.00416 13.51472 37008 ft 455 kts 136°
2026-04-29 05:30 37.95835 13.57017 37009 ft 455 kts 136°
2026-04-29 05:30 37.91264 13.62535 37008 ft 455 kts 136°
2026-04-29 05:31 37.87320 13.68782 37006 ft 455 kts 119°
2026-04-29 05:31 37.84826 13.76142 37002 ft 455 kts 111°
2026-04-29 05:32 37.82496 13.83588 36723 ft 458 kts 112°
2026-04-29 05:32 37.81309 13.87361 35784 ft 463 kts 112°
2026-04-29 05:32 37.80111 13.91153 34956 ft 464 kts 112°
2026-04-29 05:33 37.78910 13.94936 34076 ft 465 kts 112°
2026-04-29 05:33 37.77703 13.98732 33095 ft 468 kts 112°
2026-04-29 05:33 37.76482 14.02568 32186 ft 469 kts 112°
2026-04-29 05:33 37.75252 14.06390 31241 ft 470 kts 112°
2026-04-29 05:34 37.74024 14.10167 30247 ft 471 kts 112°
2026-04-29 05:34 37.72754 14.14049 29188 ft 473 kts 112°
2026-04-29 05:34 37.71501 14.17870 28415 ft 469 kts 112°
2026-04-29 05:34 37.70262 14.21650 27774 ft 462 kts 112°
2026-04-29 05:35 37.69040 14.25385 27095 ft 457 kts 112°
2026-04-29 05:35 37.67835 14.29074 26417 ft 452 kts 112°
2026-04-29 05:35 37.66644 14.32725 25775 ft 447 kts 112°
2026-04-29 05:35 37.65467 14.36327 25139 ft 442 kts 112°
2026-04-29 05:36 37.64153 14.39822 24506 ft 437 kts 121°
2026-04-29 05:36 37.62391 14.42912 23870 ft 432 kts 132°
2026-04-29 05:36 37.60229 14.45510 23246 ft 427 kts 142°
2026-04-29 05:36 37.57790 14.47522 22628 ft 423 kts 153°
2026-04-29 05:37 37.55054 14.48979 22018 ft 419 kts 163°
2026-04-29 05:37 37.52301 14.49967 21457 ft 415 kts 165°
2026-04-29 05:37 37.49521 14.50949 20893 ft 412 kts 165°
2026-04-29 05:37 37.46793 14.51919 20366 ft 408 kts 165°
2026-04-29 05:38 37.44071 14.52886 19841 ft 404 kts 165°
2026-04-29 05:38 37.41366 14.53844 19335 ft 400 kts 165°
2026-04-29 05:38 37.38701 14.54788 18846 ft 397 kts 165°
2026-04-29 05:38 37.36089 14.55857 18336 ft 393 kts 155°
2026-04-29 05:39 37.33797 14.57699 17843 ft 390 kts 139°
2026-04-29 05:39 37.32050 14.60291 17326 ft 388 kts 121°
2026-04-29 05:39 37.31012 14.63394 16914 ft 383 kts 103°
2026-04-29 05:39 37.30734 14.66655 16788 ft 370 kts 88°
2026-04-29 05:40 37.31073 14.69806 16661 ft 358 kts 80°
2026-04-29 05:40 37.31437 14.72356 16553 ft 348 kts 80°
2026-04-29 05:40 37.31833 14.75122 16434 ft 338 kts 80°
2026-04-29 05:40 37.32242 14.77990 16307 ft 328 kts 80°
2026-04-29 05:41 37.32638 14.80766 16177 ft 319 kts 80°
2026-04-29 05:41 37.33024 14.83467 16055 ft 310 kts 80°
2026-04-29 05:41 37.33402 14.86109 15875 ft 303 kts 80°
2026-04-29 05:41 37.33775 14.88699 15594 ft 301 kts 80°
2026-04-29 05:42 37.34148 14.91293 15289 ft 299 kts 80°
2026-04-29 05:42 37.34517 14.93861 14982 ft 298 kts 80°
2026-04-29 05:42 37.34881 14.96421 14679 ft 297 kts 80°
2026-04-29 05:42 37.35242 14.98967 14376 ft 295 kts 80°
2026-04-29 05:43 37.35599 15.01503 14069 ft 294 kts 80°
2026-04-29 05:43 37.35957 15.04025 13767 ft 292 kts 80°
2026-04-29 05:43 37.36314 15.06542 13452 ft 291 kts 80°
2026-04-29 05:43 37.36660 15.08998 13165 ft 290 kts 80°
2026-04-29 05:44 37.37015 15.11531 12850 ft 288 kts 80°
2026-04-29 05:44 37.37362 15.14009 12537 ft 287 kts 80°
2026-04-29 05:44 37.37707 15.16446 12226 ft 286 kts 80°
2026-04-29 05:44 37.38054 15.18903 11913 ft 284 kts 80°
2026-04-29 05:45 37.38397 15.21341 11589 ft 283 kts 80°
2026-04-29 05:45 37.38737 15.23772 11267 ft 282 kts 80°
2026-04-29 05:45 37.39077 15.26219 10926 ft 280 kts 80°
2026-04-29 05:45 37.39411 15.28636 10291 ft 290 kts 80°
2026-04-29 05:46 37.39766 15.31192 9507 ft 304 kts 80°
2026-04-29 05:46 37.40139 15.33867 8688 ft 317 kts 80°
2026-04-29 05:46 37.40525 15.36647 7841 ft 328 kts 80°
2026-04-29 05:46 37.40917 15.39474 7302 ft 327 kts 80°
2026-04-29 05:47 37.41302 15.42247 6875 ft 312 kts 80°
2026-04-29 05:47 37.41660 15.44831 6667 ft 289 kts 80°
2026-04-29 05:47 37.41995 15.47260 6441 ft 280 kts 80°
2026-04-29 05:47 37.42305 15.49518 6238 ft 272 kts 80°
2026-04-29 05:48 37.42896 15.51719 6016 ft 263 kts 54°
2026-04-29 05:48 37.44285 15.53081 5795 ft 252 kts 17°
2026-04-29 05:48 37.45975 15.53167 5586 ft 242 kts 349°
2026-04-29 05:48 37.47614 15.52807 5382 ft 236 kts 349°
2026-04-29 05:49 37.49225 15.52446 5181 ft 234 kts 349°
2026-04-29 05:49 37.50782 15.51973 4977 ft 232 kts 332°
2026-04-29 05:49 37.51966 15.50644 4780 ft 225 kts 298°
2026-04-29 05:49 37.52354 15.48808 4596 ft 215 kts 266°
2026-04-29 05:50 37.52134 15.46979 4427 ft 208 kts 259°
2026-04-29 05:50 37.51884 15.45207 4261 ft 204 kts 259°
2026-04-29 05:50 37.51646 15.43493 4136 ft 197 kts 259°
2026-04-29 05:50 37.51416 15.41834 3951 ft 188 kts 259°
2026-04-29 05:51 37.51194 15.40229 3785 ft 180 kts 259°
2026-04-29 05:51 37.50889 15.38633 3635 ft 195 kts 249°
2026-04-29 05:51 37.50427 15.37035 3505 ft 198 kts 250°
2026-04-29 05:51 37.49962 15.35400 3348 ft 198 kts 250°
2026-04-29 05:52 37.49499 15.33767 3189 ft 198 kts 250°
2026-04-29 05:52 37.49038 15.32141 3040 ft 197 kts 250°
2026-04-29 05:52 37.48660 15.30483 2888 ft 197 kts 262°
2026-04-29 05:52 37.48524 15.28766 2740 ft 197 kts 264°
2026-04-29 05:53 37.48386 15.27055 2587 ft 196 kts 263°
2026-04-29 05:53 37.48244 15.25341 2437 ft 196 kts 263°
2026-04-29 05:53 37.48103 15.23640 2293 ft 196 kts 263°
2026-04-29 05:53 37.47961 15.21938 2137 ft 195 kts 263°
2026-04-29 05:54 37.47821 15.20245 1986 ft 195 kts 263°
2026-04-29 05:54 37.47679 15.18549 1730 ft 193 kts 263°
2026-04-29 05:54 37.47540 15.16881 1454 ft 189 kts 263°
2026-04-29 05:54 37.47403 15.15255 1204 ft 184 kts 263°
2026-04-29 05:55 37.47272 15.13688 956 ft 175 kts 263°
2026-04-29 05:55 37.47149 15.12216 739 ft 160 kts 263°
2026-04-29 05:55 37.47038 15.10889 535 ft 149 kts 263°
2026-04-29 05:55 37.46930 15.09595 328 ft 145 kts 263°
2026-04-29 05:56 37.46827 15.08368 141 ft 142 kts 263°
2026-04-29 05:56 37.46733 15.07147 59 ft 132 kts 259°
2026-04-29 05:56 37.46635 15.06150 51 ft 93 kts 263°
2026-04-29 05:56 37.46590 15.05567 50 ft 29 kts 269°
2026-04-29 05:57 37.46680 15.05466 51 ft 10 kts
2026-04-29 05:57 37.46683 15.05466 51 ft 0 kts
2026-04-29 05:58 37.46705 15.05469 49 ft 8 kts
2026-04-29 05:58 37.46751 15.05546 51 ft 15 kts 77°
2026-04-29 05:58 37.46763 15.05682 51 ft 16 kts 84°
2026-04-29 05:59 37.46775 15.05829 51 ft 17 kts 84°
2026-04-29 05:59 37.46789 15.05984 51 ft 18 kts 84°
2026-04-29 05:59 37.46802 15.06143 51 ft 19 kts 84°
2026-04-29 05:59 37.46815 15.06307 51 ft 19 kts 85°
2026-04-29 06:00 37.46829 15.06440 51 ft 8 kts 58°
2026-04-29 06:00 37.46844 15.06436 49 ft 2 kts 347°
2026-04-29 06:00 37.46866 15.06433 51 ft 5 kts 359°
2026-04-29 06:00 37.46905 15.06448 51 ft 7 kts 22°
2026-04-29 06:01 37.46949 15.06467 51 ft 5 kts 19°
2026-04-29 06:01 37.46962 15.06472 51 ft 0 kts 19°
2026-04-29 06:01 37.46964 15.06473 51 ft 0 kts 19°